map of PVU home
PVU - Airport
Location
City:  Provo, Utah, United States
Name:Provo Municipal Airport
ICAO:KPVU
IATA:PVU
FAA LID:PVU

Details
Type:Airport (Part 139 Class I)
Use:Public/Civil
Latitude:4013'09"N (40.219194)
Longitude:11143'24"W (-111.723360)
Datum:WGS 1984
Elevation:4497 ft (1371 m)
Variation:11.16E (WMM2015 magnetic declination)
-0.10 annual change
Runways:2
Longest:8599 × 150 ft (2621 × 45.5 m), paved

Time
Time Zone:UTC-7 (DST-6)
Local Time:

Weather
METAR:KPVU 160656Z AUTO 29003KT 8SM CLR M02/M04 A3031 RMK AO2 SLP272 T10221039 401001033 FZRANO
TAF:KPVU 160520Z 1606/1706 VRB04KT 6SM BR SCT200
FM161900 VRB04KT P6SM SCT200

Related Locations
Nearby:
Farthest:RRG: 10991 mi / 17689 km
Plaine Corail [Sir Gatan Duval Airport (Plaine Corail Airport)], Rodrigues Island, MU

Find:

   beyond  
but within

Other Information
Maps:
NOTAMs:
Links:
Sources:

  
  • flag of United States
  • flag of Utah
  

Airport Diagram

Airport diagram for PVU

Airport diagram PDF

Sectional Chart

Flight Planning
at skyvector.com

Satellite Image

Google Maps Satellite view

 

Copyright © 2004-2018 Karl L. Swartz. All rights reserved.
The Great Circle Mapper name and logo are trademarks of the Great Circle Mapper.
All other trademarks mentioned herein belong to their respective owners.
Please see credits for attibutions and further copyright information.

  Follow gcmap on Facebook Follow gcmap on Twitter Follow gcmap on Google+ GCmap on LinkedIn

hCard Microformat

Geo Microformat